IN3RSV Weather Reports


Display with metric or nautical units.
time (UTC)temp
F
wind
direction
speed
MPH
gust
MPH
rain 1hr
in
rain 24hr
in
rain mn
in
humidity
%
barometer
mb
20260502181233 61 114 3.0 5.0 0.00 0.00 0.00 51 1017.2
20260502180734 61 127 2.0 5.0 0.00 0.00 0.00 50 1017.2
20260502180231 61 128 3.0 4.0 0.00 0.00 0.00 50 1017.2
20260502170230 65 155 4.0 5.0 0.00 0.00 0.00 43 1016.8
20260502164227 68 271 1.0 4.0 0.00 0.00 0.00 38 1016.9
20260502163724 68 234 2.0 4.0 0.00 0.00 0.00 39 1016.9
20260502163225 68 230 3.0 4.0 0.00 0.00 0.00 42 1016.9
20260502162724 68 223 2.0 4.0 0.00 0.00 0.00 42 1016.8
20260502162224 68 228 2.0 5.0 0.00 0.00 0.00 42 1016.9
20260502161728 68 230 3.0 5.0 0.00 0.00 0.00 41 1016.9
20260502161223 68 226 2.0 6.0 0.00 0.00 0.00 39 1016.9
20260502160720 68 221 3.0 6.0 0.00 0.00 0.00 41 1017.0
20260502160220 68 243 4.0 6.0 0.00 0.00 0.00 39 1017.0
20260502151715 69 290 6.0 14.0 0.00 0.00 0.00 35 1017.3
20260502151448 69 275 6.0 14.0 0.00 0.00 0.00 35 1017.3
20260502150711 69 254 6.0 13.0 0.00 0.00 0.00 37 1017.2
20260502150213 69 245 7.0 13.0 0.00 0.00 0.00 37 1017.2
20260502130701 68 286 6.0 13.0 0.00 0.00 0.00 38 1018.7
20260502130201 68 245 8.0 13.0 0.00 0.00 0.00 37 1018.7
20260502123659 67 233 4.0 11.0 0.00 0.00 0.00 39 1018.9
20260502123158 67 258 8.0 11.0 0.00 0.00 0.00 38 1019.0
20260502122655 67 278 4.0 12.0 0.00 0.00 0.00 41 1019.0
20260502122155 66 248 6.0 12.0 0.00 0.00 0.00 38 1019.2
20260502121656 66 302 7.0 11.0 0.00 0.00 0.00 39 1019.2
20260502121154 66 302 4.0 10.0 0.00 0.00 0.00 41 1019.3
20260502120956 66 350 6.0 14.0 0.00 0.00 0.00 40 1019.3
20260502120434 66 295 6.0 14.0 0.00 0.00 0.00 39 1019.4
20260502115729 65 300 5.0 10.0 0.00 0.00 0.00 40 1019.5
20260502115712 65 289 3.0 9.0 0.00 0.00 0.00 43 1019.4
20260502114652 65 254 4.0 10.0 0.00 0.00 0.00 42 1019.6
20260502114149 65 268 3.0 9.0 0.00 0.00 0.00 41 1019.6
20260502113650 65 281 5.0 9.0 0.00 0.00 0.00 43 1019.6
20260502113439 65 276 4.0 7.0 0.00 0.00 0.00 43 1019.7
20260502112647 64 244 5.0 7.0 0.00 0.00 0.00 45 1019.7
20260502112147 63 237 4.0 9.0 0.00 0.00 0.00 45 1019.8
20260502111648 63 292 5.0 9.0 0.00 0.00 0.00 44 1020.0
20260502111145 63 265 4.0 9.0 0.00 0.00 0.00 43 1020.1
20260502110646 62 250 4.0 9.0 0.00 0.00 0.00 44 1020.2
20260502110147 62 255 3.0 7.0 0.00 0.00 0.00 43 1020.3
20260502105642 62 279 5.0 7.0 0.00 0.00 0.00 43 1020.4
20260502105143 62 326 3.0 7.0 0.00 0.00 0.00 44 1020.4
20260502104643 62 265 2.0 7.0 0.00 0.00 0.00 45 1020.6
20260502104242 61 302 4.0 7.0 0.00 0.00 0.00 44 1020.7
20260502104204 61 288 2.0 7.0 0.00 0.00 0.00 46 1020.7
20260502103424 60 269 3.0 7.0 0.00 0.00 0.00 44 1020.8
20260502102645 61 240 5.0 7.0 0.00 0.00 0.00 44 1020.9
20260502102140 61 266 3.0 6.0 0.00 0.00 0.00 43 1021.0
20260502101638 61 262 2.0 7.0 0.00 0.00 0.00 44 1021.1
20260502101138 60 259 2.0 7.0 0.00 0.00 0.00 45 1021.1
20260502100637 60 228 3.0 6.0 0.00 0.00 0.00 46 1021.2
20260502100138 60 319 4.0 6.0 0.00 0.00 0.00 44 1021.2
20260502091131 58 283 1.0 4.0 0.00 0.00 0.00 52 1021.8
20260502090631 57 275 2.0 4.0 0.00 0.00 0.00 50 1021.8
20260502090134 57 250 2.0 4.0 0.00 0.00 0.00 52 1021.9
20260502071125 49 38 0.0 2.0 0.00 0.00 0.00 64 1022.7
20260502070623 49 38 1.0 2.0 0.00 0.00 0.00 64 1022.6
20260502070119 49 38 0.0 2.0 0.00 0.00 0.00 68 1022.7
20260502065628 48 38 1.0 2.0 0.00 0.00 0.00 67 1022.7
20260502065118 47 38 1.0 3.0 0.00 0.00 0.00 69 1022.7
20260502064858 47 38 2.0 3.0 0.00 0.00 0.00 66 1022.6
20260502064118 46 38 2.0 3.0 0.00 0.00 0.00 68 1022.7
20260502063619 46 38 2.0 3.0 0.00 0.00 0.00 69 1022.7
20260502063401 45 38 2.0 3.0 0.00 0.00 0.00 70 1022.8
20260502062605 45 38 2.0 3.0 0.00 0.00 0.00 70 1022.8
20260502062105 45 38 2.0 3.0 0.00 0.00 0.00 70 1022.8
20260502061605 46 38 2.0 3.0 0.00 0.00 0.00 69 1022.8
20260502061113 45 38 2.0 3.0 0.00 0.00 0.00 69 1022.8
20260502060605 45 38 2.0 2.0 0.00 0.00 0.00 69 1022.9
20260502060116 45 38 2.0 3.0 0.00 0.00 0.00 69 1022.8
20260502055602 45 38 2.0 3.0 0.00 0.00 0.00 69 1022.9
20260502055104 46 38 2.0 3.0 0.00 0.00 0.00 69 1022.9
20260502054602 46 38 2.0 3.0 0.00 0.00 0.00 67 1022.9
20260502054102 45 38 2.0 3.0 0.00 0.00 0.00 68 1022.9
20260502053553 45 38 2.0 3.0 0.00 0.00 0.00 68 1022.9
20260502053051 45 38 2.0 3.0 0.00 0.00 0.00 68 1022.9
20260502052552 45 38 2.0 3.0 0.00 0.00 0.00 69 1022.9
20260502052052 45 38 1.0 3.0 0.00 0.00 0.00 70 1022.8
20260502051833 45 38 0.0 3.0 0.00 0.00 0.00 68 1022.8
20260502051332 45 38 0.0 3.0 0.00 0.00 0.00 69 1022.8
20260502050549 45 38 2.0 4.0 0.00 0.00 0.00 69 1022.9
20260502050046 45 38 3.0 4.0 0.00 0.00 0.00 68 1022.8
20260502045547 45 38 2.0 4.0 0.00 0.00 0.00 67 1022.9
20260502045333 44 38 2.0 4.0 0.00 0.00 0.00 69 1022.9
20260502044547 45 38 2.0 4.0 0.00 0.00 0.00 68 1022.8
20260502044110 45 38 3.0 4.0 0.00 0.00 0.00 67 1022.9
20260502044059 45 38 3.0 4.0 0.00 0.00 0.00 67 1022.9
20260502043046 45 38 2.0 4.0 0.00 0.00 0.00 67 1022.9
20260502042607 45 38 3.0 4.0 0.00 0.00 0.00 66 1022.8
20260502042602 45 38 3.0 4.0 0.00 0.00 0.00 66 1022.9
20260502041539 45 38 3.0 4.0 0.00 0.00 0.00 66 1022.8
20260502041037 44 38 3.0 4.0 0.00 0.00 0.00 67 1022.7
20260502040538 44 38 3.0 4.0 0.00 0.00 0.00 68 1022.8
20260502040036 44 30 2.0 3.0 0.00 0.00 0.00 67 1022.8
20260502035559 45 25 2.0 5.0 0.00 0.00 0.00 67 1022.8
20260502035034 45 25 2.0 5.0 0.00 0.00 0.00 66 1022.7
20260502034535 45 7 4.0 5.0 0.00 0.00 0.00 67 1022.6
20260502034341 44 34 2.0 3.0 0.00 0.00 0.00 68 1022.5
20260502033532 45 34 2.0 3.0 0.00 0.00 0.00 66 1022.5
20260502033033 45 34 2.0 3.0 0.00 0.00 0.00 66 1022.5
20260502032530 45 34 2.0 3.0 0.00 0.00 0.00 66 1022.5
20260502032031 45 34 2.0 3.0 0.00 0.00 0.00 66 1022.5
20260502031535 45 34 2.0 4.0 0.00 0.00 0.00 66 1022.5
20260502031031 45 34 3.0 4.0 0.00 0.00 0.00 67 1022.5
20260502030531 45 34 3.0 3.0 0.00 0.00 0.00 67 1022.5
20260502030031 45 34 2.0 3.0 0.00 0.00 0.00 67 1022.5
20260502025526 45 34 2.0 3.0 0.00 0.00 0.00 66 1022.5
20260502025026 46 34 3.0 4.0 0.00 0.00 0.00 65 1022.4
20260502024527 46 34 3.0 4.0 0.00 0.00 0.00 64 1022.5
20260502024024 45 34 3.0 4.0 0.00 0.00 0.00 65 1022.4
20260502023524 45 34 2.0 4.0 0.00 0.00 0.00 65 1022.5
20260502023029 45 34 3.0 5.0 0.00 0.00 0.00 65 1022.6
20260502022525 46 34 2.0 5.0 0.00 0.00 0.00 65 1022.5
20260502022258 45 34 3.0 4.0 0.00 0.00 0.00 66 1022.6
20260502021522 45 34 3.0 4.0 0.00 0.00 0.00 65 1022.5
20260502021024 46 34 2.0 4.0 0.00 0.00 0.00 65 1022.5
20260502020807 46 34 3.0 4.0 0.00 0.00 0.00 64 1022.6
20260502020023 46 34 2.0 4.0 0.00 0.00 0.00 65 1022.5
20260502015520 46 34 2.0 3.0 0.00 0.00 0.00 65 1022.5
20260502015027 46 34 2.0 3.0 0.00 0.00 0.00 64 1022.5
20260502014524 46 34 2.0 3.0 0.00 0.00 0.00 64 1022.5
20260502014042 46 34 0.0 2.0 0.00 0.00 0.00 65 1022.6
20260502014036 46 34 2.0 3.0 0.00 0.00 0.00 65 1022.6
20260502013301 46 34 0.0 4.0 0.00 0.00 0.00 64 1022.5
20260502012826 47 34 2.0 4.0 0.00 0.00 0.00 63 1022.7
20260502012015 47 34 2.0 3.0 0.00 0.00 0.00 62 1022.6
20260502011800 47 32 1.0 3.0 0.00 0.00 0.00 62 1022.6
20260502011009 48 32 0.0 5.0 0.00 0.00 0.00 61 1022.7
20260502010759 48 32 3.0 5.0 0.00 0.00 0.00 59 1022.5
20260502010012 48 39 3.0 4.0 0.00 0.00 0.00 60 1022.6
20260502005513 48 55 2.0 3.0 0.00 0.00 0.00 62 1022.5
20260502005256 48 55 1.0 6.0 0.00 0.00 0.00 61 1022.6
20260502004512 48 48 4.0 6.0 0.00 0.00 0.00 59 1022.6
20260502004010 48 61 3.0 4.0 0.00 0.00 0.00 60 1022.7
20260502003512 48 61 2.0 6.0 0.00 0.00 0.00 60 1022.8
20260502003010 48 61 3.0 6.0 0.00 0.00 0.00 60 1022.7
20260502002512 48 61 5.0 6.0 0.00 0.00 0.00 59 1022.8
20260502002016 47 63 3.0 5.0 0.00 0.00 0.00 61 1022.9
20260502001540 47 58 3.0 4.0 0.00 0.00 0.00 63 1022.9
20260502001527 47 58 3.0 5.0 0.00 0.00 0.00 61 1022.9
20260502000507 47 59 2.0 3.0 0.00 0.00 0.00 64 1022.9
20260502000259 47 59 1.0 3.0 0.00 0.00 0.00 65 1022.9
20260501235512 47 59 1.0 3.0 0.00 0.00 0.00 63 1022.9
20260501235010 47 59 0.0 4.0 0.00 0.00 0.00 63 1022.8
20260501234818 48 59 2.0 4.0 0.00 0.00 0.00 61 1022.8
20260501234011 48 59 2.0 5.0 0.00 0.00 0.00 61 1022.8
20260501233518 48 59 3.0 5.0 0.00 0.00 0.00 59 1022.8
20260501233048 48 59 3.0 4.0 0.00 0.00 0.00 61 1022.8
20260501233036 48 59 3.0 4.0 0.00 0.00 0.00 61 1022.7
20260501232009 47 59 2.0 3.0 0.00 0.00 0.00 62 1022.7
20260501231528 47 59 2.0 3.0 0.00 0.00 0.00 63 1022.7
20260501231009 47 59 0.0 3.0 0.00 0.00 0.00 63 1022.8
20260501230523 48 59 1.0 4.0 0.00 0.00 0.00 62 1022.7
20260501230243 48 59 0.0 4.0 0.00 0.00 0.00 61 1022.7
20260501225512 48 59 3.0 4.0 0.00 0.00 0.00 60 1022.7
20260501225008 48 59 1.0 3.0 0.00 0.00 0.00 61 1022.7
20260501224512 48 59 1.0 3.0 0.00 0.00 0.00 61 1022.6
20260501224008 48 59 1.0 5.0 0.00 0.00 0.00 60 1022.7
20260501223511 49 59 1.0 5.0 0.00 0.00 0.00 60 1022.6
20260501223010 49 59 3.0 6.0 0.00 0.00 0.00 60 1022.6
20260501222515 50 59 3.0 6.0 0.00 0.00 0.00 57 1022.6
20260501222009 50 62 3.0 5.0 0.00 0.00 0.00 57 1022.6
20260501221509 50 65 2.0 5.0 0.00 0.00 0.00 56 1022.5
20260501221004 51 69 3.0 6.0 0.00 0.00 0.00 55 1022.5
20260501220522 50 47 3.0 5.0 0.00 0.00 0.00 56 1022.5
20260501220518 51 54 4.0 6.0 0.00 0.00 0.00 56 1022.5
20260501215507 51 52 1.0 7.0 0.00 0.00 0.00 57 1022.5
20260501215004 50 55 3.0 7.0 0.00 0.00 0.00 56 1022.5
20260501214515 49 76 3.0 5.0 0.00 0.00 0.00 58 1022.5
20260501214012 50 83 0.0 4.0 0.00 0.00 0.00 59 1022.4
20260501213509 50 83 2.0 5.0 0.00 0.00 0.00 57 1022.4
20260501213005 50 83 3.0 5.0 0.00 0.00 0.00 55 1022.3
20260501212509 50 85 2.0 4.0 0.00 0.00 0.00 56 1022.4
20260501212005 50 85 2.0 4.0 0.00 0.00 0.00 57 1022.4
20260501211508 50 86 1.0 4.0 0.00 0.00 0.00 58 1022.4
20260501211006 50 86 2.0 4.0 0.00 0.00 0.00 59 1022.3
20260501210512 50 55 0.0 2.0 0.00 0.00 0.00 59 1022.3
20260501210019 51 55 0.0 3.0 0.00 0.00 0.00 56 1022.2
20260501205509 51 55 2.0 5.0 0.00 0.00 0.00 56 1022.3
20260501205007 51 55 2.0 5.0 0.00 0.00 0.00 53 1022.2
20260501204755 51 52 3.0 5.0 0.00 0.00 0.00 54 1022.2
20260501204008 51 54 2.0 4.0 0.00 0.00 0.00 55 1022.2
20260501203508 51 54 2.0 3.0 0.00 0.00 0.00 55 1022.2
20260501203008 51 54 2.0 4.0 0.00 0.00 0.00 55 1022.2
20260501202514 51 73 1.0 4.0 0.00 0.00 0.00 58 1022.2
20260501202005 50 141 0.0 0.0 0.00 0.00 0.00 58 1022.1
20260501201507 50 147 0.0 3.0 0.00 0.00 0.00 59 1022.1
20260501201006 51 147 1.0 3.0 0.00 0.00 0.00 58 1022.2
20260501200508 51 145 1.0 3.0 0.00 0.00 0.00 58 1022.1
20260501200011 51 147 1.0 5.0 0.00 0.00 0.00 57 1022.0
20260501195507 52 147 2.0 5.0 0.00 0.00 0.00 56 1022.1
20260501195006 51 68 3.0 4.0 0.00 0.00 0.00 54 1022.0
20260501194511 51 127 2.0 3.0 0.00 0.00 0.00 57 1021.9
20260501194003 51 133 1.0 3.0 0.00 0.00 0.00 56 1021.9
20260501193506 51 130 1.0 3.0 0.00 0.00 0.00 56 1021.8
20260501193005 52 130 1.0 3.0 0.00 0.00 0.00 54 1021.8
20260501192504 52 130 0.0 3.0 0.00 0.00 0.00 55 1021.7
20260501192003 52 130 1.0 3.0 0.00 0.00 0.00 56 1021.7
20260501191505 52 130 1.0 3.0 0.00 0.00 0.00 54 1021.7
20260501191004 52 130 1.0 3.0 0.00 0.00 0.00 54 1021.7
20260501190506 52 130 2.0 3.0 0.00 0.00 0.00 54 1021.5
20260501190001 53 130 2.0 4.0 0.00 0.00 0.00 53 1021.4
20260501185502 53 130 2.0 4.0 0.00 0.00 0.00 55 1021.4
20260501184959 53 130 3.0 4.0 0.00 0.00 0.00 55 1021.2
20260501184502 53 114 1.0 3.0 0.00 0.00 0.00 53 1021.2
20260501183959 54 116 2.0 3.0 0.00 0.00 0.00 53 1021.1
20260501183502 54 116 1.0 3.0 0.00 0.00 0.00 52 1021.0
20260501182959 55 116 0.0 4.0 0.00 0.00 0.00 51 1020.9
20260501182506 55 94 2.0 4.0 0.00 0.00 0.00 50 1020.8
20260501182003 55 118 0.0 4.0 0.00 0.00 0.00 52 1020.8